Regional Weather Roundup
Issued by NWS

Home | Current Version | Previous Version | Graphics & Text | Print | Product List | Glossary On
Versions: 1 2 3 4 5 6 7 8 9 10 11 12 13 14 15 16 17 18 19 20 21 22 23 24 25 26 27 28 29 30 31 32 33 34 35 36 37 38 39 40 41 42 43 44 45 46 47 48 49 50
679
ASUS45 KSLC 300510
RWRUT

UTAH REGIONAL WEATHER ROUNDUP
NATIONAL WEATHER SERVICE SALT LAKE CITY UT
1100 PM MDT FRI APR 29 2016

UTZ001>011-023>025-300600-

NORTHERN UTAH

CITY           SKY/WX    TMP DP  RH WIND       PRES   REMARKS
BRIGHAM CITY   PTCLDY    47  37  68 W6        29.87S
HILL AFB       MOCLDY    45  37  73 N2        29.87R
LOGAN          PTCLDY    44  37  76 W5        29.88R
OGDEN          MOCLDY    45  38  76 NW5       29.86R
PROVO AIRPORT  MOCLDY    46  37  71 S6        29.86S
SALT LAKE CITY MOCLDY    50  39  66 N5        29.86R
VERNAL         CLOUDY    42  31  64 N6        29.86R
WENDOVER       CLOUDY    46  37  71 W10       29.91R
HEBER CITY     MOCLDY    39  32  75 CALM      29.86S

$$

UTZ012>022-026-027-300600-

SOUTHERN/CENTRAL UTAH

CITY           SKY/WX    TMP DP  RH WIND       PRES   REMARKS
BLANDING       MOCLDY    38  35  90 NW5       29.93S WCI  34
BRYCE CANYON   CLOUDY    35  31  85 W5        29.92R WCI  31
CEDAR CITY     CLOUDY    42  37  82 CALM      29.87F
DELTA          PTCLDY    43  37  81 NW3       29.87S
HANKSVILLE     CLOUDY    50  39  66 CALM      29.85R
MILFORD        RAIN      46  42  86 N10       29.86S
MOAB/CYNLANDS  CLOUDY    47  41  80 NE5       29.81S
PRICE          PTCLDY    42  32  67 NE9       29.85R
ST GEORGE      MOCLDY    54  45  71 W12       29.86R
KANAB          CLOUDY    46  43  87 CALM      29.94S

$$

REGIONAL REPORTS     COLORADO/ARIZONA

CITY           SKY/WX    TMP DP  RH WIND       PRES   REMARKS
CRAIG, CO      CLOUDY    37  30  75 N9        29.85S WCI  30
GRAND JUNCTION RAIN      43  38  82 N10       29.85R
RIFLE          CLOUDY    43  37  79 CALM      29.83S
MONTROSE       CLOUDY    44  35  70 NW5       29.86S
CORTEZ         CLOUDY    37  35  92 CALM      29.88R
PAGE, AZ       CLOUDY    56  35  45 W6        29.85R
GRAND CANYON   MOCLDY    39  33  79 CALM      29.93S
KINGMAN        PTCLDY    60  34  37 S10       29.80F
FLAGSTAFF      PTCLDY    34  34 100 CALM      29.95S

$$

REGIONAL REPORTS    NEVADA/IDAHO/WYOMING

CITY           SKY/WX    TMP DP  RH WIND       PRES   REMARKS
LAS VEGAS, NV  PTCLDY    70  31  23 SW3       29.66F
ELY            RAIN      36  36 100 W6        29.91R FOG     WCI  31
ELKO           CLOUDY    42  37  82 NE8       29.91R
POCATELLO, ID  CLOUDY    43  40  89 NW5       29.89R
BURLEY         MOCLDY    46  42  86 W3        29.87R
EVANSTON, WY   CLOUDY    35  26  69 E7        29.90R WCI  29
ROCK SPRINGS   CLOUDY    34  29  82 NE13      29.92S WCI  25
KEMMERER         N/A     32  30  93 E8        29.93R WCI  25

$$




USA.gov is the U.S. government's official web portal to all federal, state and local government web resources and services.